When you browse on this site, cookies collect data to enhance your experience and personalize the content and advertising you see.
Visit our Privacy Policy to learn more. By continuing to use the site, you agree to this use of cookies and data.

Meteo orario Rio de Janeiro

Oggi, 8 Luglio, Mercoledi

Tempo Temperatura Precipitazioni Vento Pressione Umidità
00:00 +23°C° 0 mm 2 m/s 758 mm Hg 60%
01:00 +23°C° 0 mm 2 m/s 758 mm Hg 61%
02:00 +21°C° 0 mm 2 m/s 758 mm Hg 63%
03:00 +21°C° 0 mm 2 m/s 758 mm Hg 64%
04:00 +21°C° 0 mm 2 m/s 758 mm Hg 65%
05:00 +20°C° 0 mm 2 m/s 758 mm Hg 65%
06:00 +20°C° 0 mm 2 m/s 758 mm Hg 66%
07:00 +23°C° 0 mm 2 m/s 758 mm Hg 61%
08:00 +25°C° 0 mm 2 m/s 758 mm Hg 57%
09:00 +26°C° 0 mm 3 m/s 759 mm Hg 53%
10:00 +28°C° 0 mm 3 m/s 758 mm Hg 48%
11:00 +30°C° 0 mm 3 m/s 758 mm Hg 43%
12:00 +32°C° 0 mm 4 m/s 758 mm Hg 39%
13:00 +33°C° 0 mm 3 m/s 757 mm Hg 38%
14:00 +33°C° 0 mm 3 m/s 756 mm Hg 38%
15:00 +34°C° 0 mm 2 m/s 756 mm Hg 37%
16:00 +31°C° 0 mm 2 m/s 756 mm Hg 43%
17:00 +29°C° 0 mm 2 m/s 757 mm Hg 49%
18:00 +27°C° 0 mm 2 m/s 757 mm Hg 55%
19:00 +27°C° 0 mm 2 m/s 757 mm Hg 57%
20:00 +26°C° 0 mm 2 m/s 758 mm Hg 59%
21:00 +25°C° 0 mm 2 m/s 758 mm Hg 62%
22:00 +25°C° 0 mm 2 m/s 758 mm Hg 63%
23:00 +24°C° 0 mm 2 m/s 758 mm Hg 65%

Domani, 9 Luglio, Giovedi

Tempo Temperatura Precipitazioni Vento Pressione Umidità
00:00 +24°C° 0 mm 2 m/s 758 mm Hg 66%
01:00 +24°C° 0 mm 2 m/s 758 mm Hg 67%
02:00 +23°C° 0 mm 2 m/s 758 mm Hg 67%
03:00 +23°C° 0 mm 2 m/s 758 mm Hg 68%
04:00 +23°C° 0 mm 2 m/s 758 mm Hg 68%
05:00 +21°C° 0 mm 2 m/s 758 mm Hg 68%
06:00 +21°C° 0 mm 2 m/s 758 mm Hg 68%
07:00 +23°C° 0 mm 2 m/s 759 mm Hg 64%
08:00 +24°C° 0 mm 3 m/s 760 mm Hg 60%
09:00 +26°C° 0 mm 3 m/s 760 mm Hg 57%
10:00 +26°C° 0 mm 4 m/s 760 mm Hg 57%
11:00 +27°C° 0 mm 4 m/s 760 mm Hg 57%
12:00 +28°C° 0 mm 5 m/s 760 mm Hg 58%
13:00 +28°C° 0 mm 5 m/s 760 mm Hg 58%
14:00 +27°C° 0 mm 4 m/s 760 mm Hg 59%
15:00 +27°C° 0 mm 4 m/s 760 mm Hg 59%
16:00 +26°C° 0 mm 3 m/s 761 mm Hg 64%
17:00 +25°C° 0 mm 3 m/s 761 mm Hg 69%
18:00 +24°C° 0 mm 2 m/s 761 mm Hg 75%
19:00 +24°C° 0.1 mm 2 m/s 762 mm Hg 77%
20:00 +24°C° 0.1 mm 2 m/s 762 mm Hg 79%
21:00 +23°C° 0.1 mm 2 m/s 763 mm Hg 81%
22:00 +23°C° 0.1 mm 2 m/s 763 mm Hg 82%
23:00 +23°C° 0.1 mm 2 m/s 763 mm Hg 83%

Dopodomani, 10 Luglio, Venerdi

Tempo Temperatura Precipitazioni Vento Pressione Umidità
00:00 +23°C° 0.1 mm 2 m/s 763 mm Hg 84%
01:00 +23°C° 0.2 mm 2 m/s 763 mm Hg 85%
02:00 +21°C° 0.2 mm 2 m/s 763 mm Hg 86%
03:00 +21°C° 0.2 mm 3 m/s 762 mm Hg 86%
04:00 +21°C° 0.3 mm 3 m/s 763 mm Hg 87%
05:00 +21°C° 0.3 mm 2 m/s 763 mm Hg 87%
06:00 +21°C° 0.3 mm 2 m/s 763 mm Hg 87%
07:00 +21°C° 0.1 mm 2 m/s 763 mm Hg 85%
08:00 +21°C° 0.1 mm 2 m/s 764 mm Hg 83%
09:00 +23°C° 0.1 mm 2 m/s 764 mm Hg 80%
10:00 +23°C° 0 mm 2 m/s 764 mm Hg 79%
11:00 +22°C° 0 mm 3 m/s 764 mm Hg 77%
12:00 +24°C° 0 mm 3 m/s 763 mm Hg 75%
13:00 +22°C° 0 mm 3 m/s 763 mm Hg 74%
14:00 +22°C° 0 mm 3 m/s 763 mm Hg 73%
15:00 +22°C° 0 mm 3 m/s 762 mm Hg 72%
16:00 +22°C° 0 mm 3 m/s 763 mm Hg 73%
17:00 +22°C° 0 mm 3 m/s 763 mm Hg 74%
18:00 +21°C° 0 mm 3 m/s 763 mm Hg 75%
19:00 +21°C° 0 mm 3 m/s 763 mm Hg 76%
20:00 +21°C° 0 mm 3 m/s 763 mm Hg 77%
21:00 +20°C° 0 mm 3 m/s 764 mm Hg 78%
22:00 +20°C° 0 mm 3 m/s 764 mm Hg 79%
23:00 +20°C° 0 mm 3 m/s 764 mm Hg 81%

11 Luglio, Sabato

Tempo Temperatura Precipitazioni Vento Pressione Umidità
00:00 +19°C° 0 mm 3 m/s 764 mm Hg 82%
01:00 +19°C° 0 mm 2 m/s 763 mm Hg 83%
02:00 +19°C° 0 mm 2 m/s 763 mm Hg 84%
03:00 +19°C° 0 mm 2 m/s 763 mm Hg 85%
04:00 +19°C° 0 mm 2 m/s 763 mm Hg 85%
05:00 +19°C° 0 mm 2 m/s 762 mm Hg 86%
06:00 +19°C° 0 mm 2 m/s 762 mm Hg 86%
07:00 +21°C° 0 mm 1 m/s 762 mm Hg 80%
08:00 +23°C° 0 mm 1 m/s 763 mm Hg 74%
09:00 +24°C° 0 mm 1 m/s 763 mm Hg 68%
10:00 +26°C° 0 mm 1 m/s 762 mm Hg 63%
11:00 +27°C° 0 mm 1 m/s 762 mm Hg 57%
12:00 +29°C° 0 mm 1 m/s 761 mm Hg 51%
13:00 +29°C° 0 mm 1 m/s 761 mm Hg 51%
14:00 +29°C° 0 mm 1 m/s 760 mm Hg 50%
15:00 +29°C° 0 mm 2 m/s 759 mm Hg 50%
16:00 +28°C° 0 mm 2 m/s 760 mm Hg 55%
17:00 +27°C° 0 mm 2 m/s 760 mm Hg 60%
18:00 +26°C° 0 mm 2 m/s 760 mm Hg 64%
19:00 +25°C° 0 mm 2 m/s 760 mm Hg 66%
20:00 +25°C° 0 mm 2 m/s 760 mm Hg 67%
21:00 +24°C° 0 mm 1 m/s 760 mm Hg 69%
22:00 +24°C° 0 mm 1 m/s 760 mm Hg 69%
23:00 +23°C° 0 mm 1 m/s 760 mm Hg 70%

12 Luglio, Domenica

Tempo Temperatura Precipitazioni Vento Pressione Umidità
00:00 +23°C° 0 mm 1 m/s 760 mm Hg 70%
01:00 +23°C° 0 mm 2 m/s 760 mm Hg 71%
02:00 +21°C° 0 mm 2 m/s 760 mm Hg 73%
03:00 +21°C° 0 mm 2 m/s 759 mm Hg 74%
04:00 +21°C° 0 mm 2 m/s 759 mm Hg 75%
05:00 +22°C° 0 mm 1 m/s 759 mm Hg 76%
06:00 +22°C° 0 mm 1 m/s 759 mm Hg 77%
07:00 +23°C° 0 mm 1 m/s 760 mm Hg 72%
08:00 +24°C° 0 mm 1 m/s 760 mm Hg 68%
09:00 +26°C° 0 mm 1 m/s 761 mm Hg 63%
10:00 +27°C° 0 mm 1 m/s 760 mm Hg 56%
11:00 +29°C° 0 mm 1 m/s 760 mm Hg 50%
12:00 +29°C° 0 mm 0 m/s 760 mm Hg 44%
13:00 +32°C° 0 mm 1 m/s 759 mm Hg 43%
14:00 +32°C° 0 mm 1 m/s 759 mm Hg 42%
15:00 +32°C° 0 mm 2 m/s 758 mm Hg 40%
16:00 +30°C° 0 mm 2 m/s 758 mm Hg 46%
17:00 +29°C° 0 mm 2 m/s 759 mm Hg 51%
18:00 +27°C° 0 mm 2 m/s 759 mm Hg 56%
19:00 +27°C° 0 mm 2 m/s 759 mm Hg 58%
20:00 +26°C° 0 mm 2 m/s 759 mm Hg 60%
21:00 +25°C° 0 mm 1 m/s 760 mm Hg 62%
22:00 +25°C° 0 mm 1 m/s 760 mm Hg 63%
23:00 +25°C° 0 mm 2 m/s 760 mm Hg 63%

13 Luglio, Lunedi

Tempo Temperatura Precipitazioni Vento Pressione Umidità
00:00 +24°C° 0 mm 2 m/s 759 mm Hg 64%
01:00 +24°C° 0 mm 2 m/s 759 mm Hg 66%
02:00 +23°C° 0 mm 2 m/s 759 mm Hg 67%
03:00 +23°C° 0 mm 2 m/s 759 mm Hg 69%
04:00 +23°C° 0 mm 2 m/s 759 mm Hg 70%
05:00 +23°C° 0 mm 2 m/s 759 mm Hg 71%
06:00 +21°C° 0 mm 2 m/s 759 mm Hg 72%
07:00 +24°C° 0 mm 2 m/s 760 mm Hg 67%
08:00 +25°C° 0 mm 2 m/s 760 mm Hg 63%
09:00 +27°C° 0 mm 1 m/s 760 mm Hg 58%
10:00 +29°C° 0 mm 1 m/s 760 mm Hg 52%
11:00 +31°C° 0 mm 1 m/s 760 mm Hg 46%
12:00 +33°C° 0 mm 1 m/s 760 mm Hg 40%
13:00 +33°C° 0 mm 1 m/s 760 mm Hg 39%
14:00 +34°C° 0 mm 2 m/s 759 mm Hg 38%
15:00 +34°C° 0 mm 3 m/s 759 mm Hg 37%
16:00 +31°C° 0 mm 2 m/s 759 mm Hg 45%
17:00 +29°C° 0 mm 1 m/s 760 mm Hg 53%
18:00 +26°C° 0 mm 1 m/s 760 mm Hg 60%
19:00 +24°C° 0 mm 0 m/s 760 mm Hg 62%
20:00 +23°C° 0 mm 0 m/s 761 mm Hg 64%
21:00 +23°C° 0 mm 0 m/s 761 mm Hg 66%
22:00 +22°C° 0 mm 0 m/s 761 mm Hg 67%
23:00 +22°C° 0 mm 0 m/s 761 mm Hg 68%
Mostrare altro